Regional Weather Roundup
Issued by NWS New Orleans/Baton Rouge, LA

Home | Current Version | Previous Version | Graphics & Text | Print | Product List | Glossary On
Versions: 1 2 3 4 5 6 7 8 9 10 11 12 13 14 15 16 17 18 19 20 21 22 23 24 25 26 27 28 29 30 31 32 33 34 35 36 37 38 39 40 41 42 43 44 45 46 47 48 49 50
363
ASUS44 KLIX 242010
RWRLIX
NEW ORLEANS REGIONAL WEATHER ROUNDUP
NATIONAL WEATHER SERVICE NEW ORLEANS LA
300 PM CDT THU JUL 24 2014

NOTE: "FAIR" INDICATES FEW OR NO CLOUDS BELOW 12,000 FEET WITH NO
      SIGNIFICANT WEATHER AND/OR OBSTRUCTIONS TO VISIBILITY.
      SKY/WX - SKY CONDITION AND SIGNIFICANT WEATHER.
      TMP - AIR TEMPERATURE.     DP    - DEWPOINT TEMPERATURE.
      RH  - RELATIVE HUMIDITY.   PRES  - PRESSURE.
      HI  - HEAT INDEX.          WCI   - WIND CHILL INDEX.

*  THESE STATIONS ARE NOT NWS OR FAA STATIONS AND ARE NOT UNDER
   NWS QUALITY CONTROL.

LAZ038-040-048-061>063-065>067-069-242100-
SOUTHEAST LOUISIANA

CITY           SKY/WX    TMP DP  RH WIND       PRES   REMARKS
N.O. AUDUBON     N/A     88  73  61 MISG        N/A  HX  95
N.O. INTL ARPT PTSUNNY   89  72  56 NW3       29.97F HX  96
N.O. LAKEFRONT MOSUNNY   88  73  61 N6        29.98F HX  95
N.O. DOWNTOWN* MOCLDY    88  70  55 S6        29.98S
SLIDELL        HVY RAIN  80  74  81 SW3       29.98R VSB 3/4
BATON ROUGE    PTSUNNY   90  73  57 VRB5      29.97F HX  98
BOOTHVILLE     SUNNY     84  73  69 SW10      29.99F
BELLE CHASSE   TSTM      76  71  85 NW9G21    29.97S FOG
BOGALUSA*      MOCLDY    90  70  51 N3        29.98F HX  95
GALLIANO*      NOT AVBL
NEW ROADS*       N/A     88  72  58 N7        29.98F
GONZALES*        N/A     89  71  54 CALM      29.97F HX  95
HAMMOND*       MOSUNNY   91  66  43 CALM      29.99F
HOUMA*         MOSUNNY   91  64  40 W6        29.97F
PORT FOURCHON* PTCLDY    84  75  74 W10G18    30.00F

$$

MSZ070-080>082-242100-
SOUTHERN MISSISSIPPI

CITY           SKY/WX    TMP DP  RH WIND       PRES   REMARKS
MCCOMB         PTSUNNY   88  68  51 CALM      29.98F
GULFPORT       MOSUNNY   89  72  56 SE12      29.97F HX  96
BILOXI         SUNNY     86  73  64 S10       29.98F
PASCAGOULA     MOSUNNY   87  72  60 S8        29.98F
STENNIS ARPT*  MOSUNNY  N/A N/A N/A SE5       29.98S

$$

COASTAL OBSERVATIONS
LAKE AND NEARSHORE STATIONS

STATION/POSITION TIME  TEMP    WIND        PRES    WAVE
                       AIR SEA DIR/SP/G            HT/PER
                 (UTC) (F)     (DEG/KT/KT) (MB)    (FT/S)
PASCAGOULA       2000   85     210/  9/ 11 1015.0
WAVELAND YACHT   2000   82     160/  8/  9 1014.6
GRAND ISLE       2000   82 84  270/  6/  7 1016.0
SOUTHWEST PASS   2000   86 85  310/  7/ 13 1016.2
NEW CANAL        2000   84 83   10/  5/  5 1015.5
SHELL BEACH      2000   84 80  200/  4/  7 1014.9

OFFSHORE STATIONS

STATION/POSITION TIME  TEMP    WIND        PRES    WAVE
                       AIR SEA DIR/SP/G            HT/PER
                 (UTC) (F)     (DEG/KT/KT) (MB)    (FT/S)
64 S DAUPHIN ISL 1942   83 86  190/  4/  6 1016.2

$$




USA.gov is the U.S. government's official web portal to all federal, state and local government web resources and services.